TimeEST,TemperatureF,Dew PointF,Humidity,Sea Level PressureIn,VisibilityMPH,Wind Direction,Wind SpeedMPH,Gust SpeedMPH,PrecipitationIn,Events,Conditions,WindDirDegrees,DateUTC
12:54 AM,41.0,33.1,73,30.12,10.0,East,10.4,-,N/A,,Overcast,100,2012-12-26 05:54:00
1:54 AM,37.4,32.0,81,30.10,6.0,ENE,10.4,-,N/A,Rain,Rain,70,2012-12-26 06:54:00
2:50 AM,33.8,30.2,87,30.10,2.5,SSW,3.5,-,0.10,Snow,Light Snow,210,2012-12-26 07:50:00
2:54 AM,34.0,30.9,89,30.11,3.0,SW,3.5,-,0.11,Snow,Light Snow,220,2012-12-26 07:54:00
3:37 AM,33.8,32.0,93,30.09,1.5,Calm,Calm,-,0.04,Snow,Light Snow,0,2012-12-26 08:37:00
3:54 AM,33.1,30.9,92,30.08,1.0,Calm,Calm,-,0.05,Snow,Light Snow,0,2012-12-26 08:54:00
4:45 AM,33.8,32.0,93,30.03,2.0,South,4.6,-,0.02,,Overcast,190,2012-12-26 09:45:00
4:54 AM,34.0,32.0,92,30.04,2.0,Calm,Calm,-,0.02,,Overcast,0,2012-12-26 09:54:00
5:12 AM,33.8,30.2,87,30.00,5.0,Variable,4.6,-,N/A,,Overcast,0,2012-12-26 10:12:00
5:54 AM,36.0,32.0,86,29.98,10.0,Variable,5.8,-,N/A,,Overcast,0,2012-12-26 10:54:00
6:54 AM,37.0,33.1,86,29.95,5.0,East,10.4,-,0.05,Rain,Light Rain,90,2012-12-26 11:54:00
7:54 AM,36.0,32.0,86,29.93,5.0,East,12.7,23.0,0.16,Rain,Rain,90,2012-12-26 12:54:00
8:54 AM,36.0,30.9,82,29.90,4.0,East,13.8,21.9,0.16,Rain,Ice Pellets,90,2012-12-26 13:54:00
9:54 AM,35.1,30.0,82,29.84,4.0,East,16.1,33.4,0.21,Rain,Ice Pellets,80,2012-12-26 14:54:00
10:03 AM,35.6,30.2,81,29.82,9.0,East,19.6,27.6,0.01,Rain,Light Rain,80,2012-12-26 15:03:00
10:04 AM,35.6,30.2,81,29.82,10.0,ENE,20.7,28.8,0.01,Rain,Light Rain,70,2012-12-26 15:04:00
10:12 AM,35.6,30.2,81,29.82,8.0,East,15.0,28.8,0.01,Rain,Light Ice Pellets,90,2012-12-26 15:12:00
10:28 AM,35.6,30.2,81,29.78,4.0,NE,11.5,18.4,0.08,Rain,Rain,40,2012-12-26 15:28:00
10:54 AM,36.0,32.0,86,29.78,4.0,East,6.9,-,0.12,Rain,Light Rain,90,2012-12-26 15:54:00
11:48 AM,33.8,30.2,87,29.79,2.5,West,11.5,25.3,0.12,Rain,Ice Pellets,260,2012-12-26 16:48:00
11:54 AM,33.1,32.0,96,29.80,2.0,WSW,9.2,24.2,0.14,Rain,Ice Pellets,240,2012-12-26 16:54:00
12:01 PM,33.8,32.0,93,29.74,1.5,SE,4.6,-,0.04,Rain,Ice Pellets,140,2012-12-26 17:01:00
12:23 PM,33.8,32.0,93,29.69,1.8,ENE,3.5,-,0.09,Snow,Light Snow,70,2012-12-26 17:23:00
12:54 PM,35.1,33.1,92,29.65,2.0,Calm,Calm,-,0.09,,Overcast,0,2012-12-26 17:54:00
1:13 PM,35.6,32.0,87,29.64,10.0,West,5.8,-,N/A,,Overcast,280,2012-12-26 18:13:00
1:20 PM,33.8,32.0,93,29.64,10.0,West,6.9,-,N/A,,Overcast,280,2012-12-26 18:20:00
1:28 PM,35.6,33.8,93,29.61,10.0,Calm,Calm,-,N/A,,Overcast,0,2012-12-26 18:28:00
1:54 PM,35.1,32.0,89,29.60,10.0,Calm,Calm,-,N/A,,Overcast,0,2012-12-26 18:54:00
2:09 PM,35.6,33.8,93,29.57,10.0,Calm,Calm,-,N/A,,Overcast,0,2012-12-26 19:09:00
2:21 PM,35.6,33.8,93,29.57,7.0,North,6.9,-,N/A,,Overcast,10,2012-12-26 19:21:00
2:29 PM,35.6,33.8,93,29.57,4.0,Calm,Calm,-,0.00,Rain,Light Rain,0,2012-12-26 19:29:00
2:54 PM,36.0,33.1,89,29.59,4.0,NNW,5.8,-,0.01,Rain,Light Rain,330,2012-12-26 19:54:00
3:54 PM,36.0,33.1,89,29.57,9.0,North,4.6,-,0.01,,Overcast,10,2012-12-26 20:54:00
4:54 PM,36.0,33.1,89,29.55,10.0,North,8.1,-,0.00,Rain,Light Rain,350,2012-12-26 21:54:00
5:54 PM,36.0,33.1,89,29.56,6.0,North,4.6,-,0.00,Rain,Light Freezing Rain,350,2012-12-26 22:54:00
6:01 PM,35.6,33.8,93,29.54,6.0,NNW,3.5,-,N/A,,Overcast,340,2012-12-26 23:01:00
6:31 PM,35.6,33.8,93,29.55,10.0,Calm,Calm,-,N/A,,Overcast,0,2012-12-26 23:31:00
6:54 PM,36.0,34.0,93,29.57,9.0,Calm,Calm,-,N/A,,Overcast,0,2012-12-26 23:54:00
7:17 PM,35.6,33.8,93,29.55,9.0,NNW,3.5,-,N/A,,Overcast,340,2012-12-27 00:17:00
7:54 PM,36.0,34.0,93,29.58,10.0,Calm,Calm,-,0.00,Rain,Light Rain,0,2012-12-27 00:54:00
8:22 PM,35.6,33.8,93,29.56,10.0,WNW,3.5,-,0.00,Rain,Light Rain,300,2012-12-27 01:22:00
8:54 PM,36.0,33.1,89,29.58,8.0,West,3.5,-,0.01,Rain,Light Rain,280,2012-12-27 01:54:00
9:25 PM,35.6,33.8,93,29.56,10.0,West,6.9,-,0.02,Rain,Light Rain,280,2012-12-27 02:25:00
9:54 PM,37.0,33.1,86,29.58,10.0,West,11.5,-,0.03,Rain,Light Rain,270,2012-12-27 02:54:00
10:54 PM,39.0,34.0,82,29.58,10.0,WSW,15.0,23.0,0.00,,Mostly Cloudy,240,2012-12-27 03:54:00
11:54 PM,39.9,30.9,70,29.61,10.0,West,9.2,-,N/A,,Mostly Cloudy,260,2012-12-27 04:54:00